QPF
0.00 0.00 0.00 0.01 0.00 0.00 0.01 0.01 0.06 0.06 0.01 0.00 0.00 0.00 0.00 0.00 0.00 0.00 0.00 0.00 0.00 0.00 0.00 0.00 0.00 0.00 0.00 0.00 0.00 0.00 0.00 0.00 0.00 0.00 0.00 0.00 0.00 0.00 0.00 0.00 0.00 0.00 0.01 0.01
0.01 0.01 0.01 0.02 0.01 0.03 0.03 0.01 0.05 0.01 0.00 0.00 0.00 0.00 0.00 0.00 0.00 0.00 0.00 0.00 0.00 0.00 0.00 0.00 0.00 0.00 0.00 0.00 0.00 0.00 0.00 0.00 0.00 0.00 0.00 0.00 0.00 0.00 0.00 0.00 0.00 0.00 0.02 0.03
0.03 0.01 0.07 0.03 0.01 0.03 0.07 0.05 0.02 0.00 0.00 0.00 0.00 0.00 0.00 0.00 0.00 0.00 0.00 0.00 0.00 0.00 0.00 0.00 0.00 0.00 0.00 0.00 0.00 0.00 0.00 0.00 0.00 0.00 0.00 0.00 0.00 0.00 0.00 0.00 0.00 0.01 0.03 0.03
0.02 0.06 0.05 0.02 0.03 0.01 0.00 0.00 0.00 0.00 0.00 0.00 0.00 0.00 0.00 0.00 0.00 0.00 0.00 0.00 0.00 0.00 0.00 0.00 0.00 0.00 0.00 0.00 0.00 0.00 0.00 0.00 0.00 0.00 0.00 0.01 0.00 0.00 0.00 0.00 0.00 0.01 0.03 0.03
0.01 0.02 0.00 0.00 0.00 0.01 0.00 0.00 0.00 0.00 0.00 0.00 0.00 0.00 0.00 0.00 0.00 0.00 0.00 0.00 0.00 0.00 0.00 0.00 0.00 0.00 0.00 0.00 0.00 0.00 0.00 0.00 0.00 0.00 0.00 0.00 0.00 0.00 0.01 0.01 0.00 0.01 0.03 0.03
0.01 0.00 0.01 0.00 0.00 0.00 0.00 0.01 0.00 0.00 0.00 0.00 0.00 0.00 0.00 0.00 0.00 0.00 0.00 0.00 0.00 0.00 0.00 0.00 0.00 0.00 0.00 0.00 0.00 0.00 0.00 0.00 0.00 0.00 0.00 0.00 0.00 0.00 0.01 0.02 0.02 0.02 0.02 0.03
0.00 0.00 0.00 0.00 0.00 0.00 0.06 0.05 0.00 0.00 0.00 0.00 0.00 0.00 0.00 0.00 0.00 0.00 0.00 0.00 0.00 0.00 0.00 0.00 0.00 0.00 0.00 0.00 0.00 0.00 0.00 0.00 0.00 0.00 0.00 0.00 0.00 0.01 0.01 0.01 0.02 0.01 0.02 0.03
0.00 0.00 0.00 0.00 0.00 0.01 0.01 0.00 0.00 0.00 0.00 0.00 0.00 0.00 0.00 0.00 0.00 0.00 0.00 0.00 0.00 0.00 0.00 0.00 0.00 0.00 0.00 0.00 0.00 0.00 0.00 0.00 0.00 0.00 0.00 0.00 0.00 0.00 0.00 0.01 0.01 0.01 0.01 0.02
0.00 0.00 0.00 0.00 0.00 0.00 0.00 0.00 0.00 0.00 0.00 0.00 0.00 0.00 0.00 0.00 0.00 0.00 0.00 0.00 0.00 0.00 0.00 0.00 0.00 0.00 0.00 0.00 0.00 0.00 0.00 0.00 0.00 0.00 0.00 0.00 0.00 0.00 0.00 0.00 0.00 0.00 0.01 0.02
0.00 0.00 0.00 0.00 0.00 0.00 0.00 0.00 0.00 0.00 0.00 0.00 0.00 0.00 0.00 0.00 0.00 0.00 0.00 0.00 0.00 0.00 0.00 0.00 0.00 0.00 0.00 0.00 0.00 0.00 0.00 0.00 0.00 0.00 0.00 0.00 0.00 0.00 0.01 0.00 0.01 0.01 0.01 0.01
0.00 0.00 0.00 0.00 0.00 0.00 0.00 0.00 0.00 0.00 0.00 0.00 0.00 0.00 0.00 0.00 0.00 0.00 0.00 0.00 0.00 0.00 0.00 0.00 0.00 0.00 0.00 0.00 0.00 0.00 0.00 0.00 0.00 0.00 0.00 0.00 0.00 0.01 0.02 0.03 0.03 0.03 0.02 0.02
0.00 0.00 0.00 0.00 0.00 0.00 0.00 0.00 0.00 0.00 0.00 0.00 0.00 0.00 0.00 0.00 0.00 0.00 0.00 0.00 0.00 0.00 0.00 0.00 0.00 0.00 0.00 0.00 0.00 0.00 0.00 0.00 0.00 0.00 0.00 0.00 0.00 0.01 0.04 0.03 0.02 0.03 0.05 0.05
0.00 0.00 0.00 0.00 0.00 0.00 0.00 0.00 0.00 0.00 0.00 0.00 0.00 0.00 0.00 0.00 0.00 0.00 0.00 0.00 0.00 0.00 0.00 0.00 0.00 0.00 0.00 0.00 0.00 0.00 0.00 0.00 0.00 0.00 0.00 0.00 0.00 0.00 0.00 0.03 0.03 0.02 0.03 0.04
0.00 0.00 0.00 0.00 0.00 0.00 0.00 0.00 0.00 0.00 0.00 0.00 0.00 0.00 0.00 0.00 0.00 0.00 0.00 0.00 0.00 0.00 0.00 0.00 0.00 0.00 0.00 0.00 0.00 0.00 0.00 0.00 0.00 0.00 0.00 0.00 0.00 0.00 0.00 0.02 0.05 0.04 0.04 0.02
0.00 0.00 0.00 0.00 0.00 0.00 0.00 0.00 0.00 0.00 0.00 0.00 0.00 0.00 0.00 0.00 0.00 0.00 0.00 0.00 0.00 0.00 0.00 0.00 0.00 0.00 0.00 0.00 0.00 0.00 0.00 0.00 0.00 0.00 0.01 0.03 0.01 0.02 0.02 0.04 0.07 0.08 0.06 0.05
0.00 0.00 0.00 0.00 0.00 0.00 0.00 0.00 0.00 0.00 0.00 0.00 0.00 0.00 0.00 0.00 0.00 0.00 0.00 0.00 0.00 0.00 0.00 0.00 0.00 0.00 0.00 0.00 0.00 0.00 0.00 0.00 0.00 0.00 0.00 0.00 0.01 0.01 0.03 0.05 0.06 0.07 0.07 0.09
0.00 0.01 0.00 0.00 0.00 0.00 0.00 0.00 0.00 0.00 0.00 0.00 0.00 0.00 0.00 0.00 0.00 0.00 0.00 0.00 0.00 0.00 0.00 0.00 0.00 0.00 0.00 0.00 0.00 0.00 0.00 0.00 0.00 0.00 0.00 0.00 0.00 0.00 0.01 0.04 0.05 0.06 0.07 0.10
0.00 0.00 0.00 0.00 0.00 0.00 0.00 0.00 0.00 0.00 0.00 0.00 0.00 0.00 0.00 0.00 0.00 0.00 0.00 0.00 0.00 0.00 0.00 0.00 0.00 0.00 0.00 0.00 0.00 0.00 0.00 0.00 0.00 0.00 0.00 0.00 0.00 0.00 0.00 0.00 0.01 0.02 0.02 0.02
0.00 0.00 0.00 0.00 0.00 0.00 0.00 0.00 0.00 0.00 0.00 0.00 0.00 0.00 0.00 0.00 0.00 0.00 0.00 0.00 0.00 0.00 0.00 0.00 0.00 0.00 0.00 0.00 0.00 0.00 0.00 0.00 0.00 0.00 0.00 0.00 0.00 0.00 0.00 0.00 0.00 0.00 0.00 0.00
0.00 0.00 0.00 0.00 0.00 0.00 0.00 0.00 0.00 0.00 0.00 0.00 0.00 0.00 0.00 0.00 0.00 0.00 0.00 0.00 0.00 0.00 0.00 0.00 0.00 0.00 0.00 0.00 0.00 0.00 0.00 0.00 0.00 0.00 0.00 0.00 0.00 0.00 0.00 0.00 0.00 0.00 0.00 0.00
0.00 0.00 0.00 0.00 0.00 0.00 0.00 0.00 0.00 0.00 0.00 0.00 0.00 0.00 0.00 0.00 0.00 0.00 0.00 0.00 0.00 0.00 0.00 0.00 0.00 0.00 0.00 0.00 0.00 0.00 0.00 0.00 0.00 0.00 0.00 0.00 0.00 0.00 0.00 0.00 0.00 0.00 0.00 0.00
0.00 0.00 0.00 0.00 0.00 0.00 0.00 0.00 0.00 0.00 0.00 0.00 0.00 0.00 0.00 0.00 0.00 0.00 0.00 0.00 0.00 0.00 0.00 0.00 0.00 0.00 0.00 0.00 0.00 0.00 0.00 0.00 0.00 0.00 0.00 0.00 0.00 0.00 0.00 0.00 0.00 0.00 0.00 0.00
0.00 0.00 0.00 0.00 0.00 0.00 0.00 0.00 0.00 0.00 0.00 0.00 0.00 0.00 0.00 0.00 0.00 0.00 0.00 0.00 0.00 0.00 0.00 0.00 0.00 0.00 0.00 0.00 0.00 0.00 0.00 0.00 0.00 0.00 0.00 0.00 0.00 0.00 0.00 0.00 0.00 0.00 0.00 0.00
0.00 0.00 0.00 0.00 0.00 0.00 0.00 0.00 0.00 0.00 0.00 0.00 0.00 0.00 0.00 0.00 0.00 0.00 0.00 0.00 0.00 0.00 0.00 0.00 0.00 0.00 0.00 0.00 0.00 0.00 0.00 0.00 0.00 0.00 0.00 0.00 0.00 0.00 0.00 0.00 0.00 0.00 0.00 0.00
0.00 0.00 0.00 0.00 0.00 0.00 0.00 0.00 0.00 0.00 0.00 0.00 0.00 0.00 0.00 0.00 0.00 0.00 0.00 0.00 0.00 0.00 0.00 0.00 0.00 0.00 0.00 0.00 0.00 0.00 0.00 0.00 0.00 0.00 0.00 0.00 0.00 0.00 0.00 0.00 0.00 0.00 0.00 0.00
0.00 0.00 0.00 0.00 0.00 0.00 0.00 0.00 0.00 0.00 0.00 0.00 0.00 0.00 0.00 0.00 0.00 0.00 0.00 0.00 0.00 0.00 0.00 0.00 0.00 0.00 0.00 0.00 0.00 0.00 0.00 0.00 0.00 0.00 0.00 0.00 0.00 0.00 0.00 0.00 0.00 0.00 0.00 0.00
0.00 0.00 0.00 0.00 0.00 0.00 0.00 0.00 0.00 0.00 0.00 0.00 0.00 0.00 0.00 0.00 0.00 0.00 0.00 0.00 0.00 0.00 0.00 0.00 0.00 0.00 0.00 0.00 0.00 0.00 0.00 0.00 0.00 0.00 0.00 0.00 0.00 0.00 0.00 0.00 0.00 0.00 0.00 0.00
MSLP
1014.70 1014.89 1014.95 1015.68 1015.66 1015.38 1015.75 1016.08 1016.48 1016.76 1016.60 1016.65 1016.42 1016.41 1016.40 1016.86 1017.43 1017.87 1018.25 1018.64 1018.98 1019.23 1019.32 1019.40 1019.43 1019.70 1020.66 1021.15 1021.32 1021.30 1020.99 1020.35 1019.88 1019.55 1019.49 1019.43 1019.33 1019.17 1018.96 1018.71 1018.31 1017.78 1017.32 1016.75
1016.11 1016.47 1016.78 1017.11 1016.59 1015.93 1015.90 1015.67 1016.60 1017.16 1016.97 1016.79 1016.36 1016.06 1016.75 1017.41 1017.92 1018.33 1018.66 1018.97 1019.18 1019.25 1019.25 1019.29 1019.39 1019.80 1020.50 1021.09 1021.42 1021.16 1020.69 1020.16 1019.46 1019.36 1019.25 1019.25 1018.99 1018.82 1018.53 1018.27 1017.84 1017.33 1016.81 1016.32
1016.87 1017.62 1018.50 1018.29 1018.23 1017.49 1017.66 1016.79 1017.11 1017.28 1017.57 1017.83 1017.47 1017.25 1017.49 1018.15 1018.60 1018.85 1019.07 1019.24 1019.31 1019.26 1019.23 1019.24 1019.37 1019.65 1020.14 1020.67 1021.12 1021.12 1020.69 1019.85 1019.47 1019.24 1019.17 1019.23 1018.96 1018.54 1018.33 1018.02 1017.42 1016.93 1016.36 1016.03
1017.61 1018.40 1019.12 1019.26 1018.53 1017.80 1017.54 1017.52 1017.76 1017.78 1018.01 1017.97 1017.80 1018.04 1018.40 1018.74 1019.13 1019.28 1019.38 1019.39 1019.34 1019.21 1019.19 1019.24 1019.42 1019.49 1019.49 1019.68 1020.64 1020.85 1020.63 1020.15 1019.65 1019.47 1019.26 1019.19 1018.86 1018.52 1018.13 1017.61 1017.10 1016.57 1015.98 1015.90
1017.61 1018.50 1019.49 1019.01 1018.31 1018.42 1017.98 1018.27 1018.23 1018.57 1018.40 1018.33 1017.94 1018.58 1019.16 1019.15 1019.41 1019.52 1019.34 1019.26 1019.42 1019.19 1019.16 1019.31 1019.51 1019.51 1019.40 1019.40 1020.30 1020.58 1020.49 1020.25 1019.75 1019.52 1019.30 1019.08 1018.83 1018.48 1017.95 1017.34 1016.68 1016.25 1015.77 1015.54
1017.71 1018.17 1018.93 1018.65 1018.23 1018.21 1017.96 1018.39 1018.64 1018.65 1018.82 1018.65 1018.46 1018.93 1019.14 1019.28 1019.31 1019.41 1019.27 1019.32 1019.49 1019.26 1019.34 1019.53 1019.64 1019.54 1019.43 1019.50 1020.13 1020.64 1020.47 1020.29 1019.89 1019.47 1019.20 1019.00 1018.81 1018.37 1017.97 1017.16 1016.51 1016.01 1015.41 1015.37
1017.98 1018.53 1019.00 1018.48 1018.44 1018.45 1018.72 1019.79 1018.82 1019.18 1019.28 1019.25 1019.06 1019.26 1019.48 1019.41 1019.55 1019.60 1019.46 1019.54 1019.72 1019.61 1019.76 1019.96 1020.02 1019.81 1019.60 1019.64 1020.32 1020.79 1020.40 1020.21 1019.90 1019.44 1019.15 1018.89 1018.74 1018.35 1018.08 1017.50 1016.66 1015.93 1015.41 1015.17
1018.41 1018.72 1018.84 1018.61 1018.61 1018.99 1019.27 1019.26 1019.48 1019.48 1019.13 1019.07 1019.17 1019.42 1019.68 1019.79 1019.90 1019.97 1020.36 1020.79 1021.10 1020.87 1020.86 1021.04 1021.02 1020.61 1020.29 1020.01 1020.14 1020.75 1020.79 1020.41 1020.02 1019.59 1019.23 1018.95 1018.76 1018.51 1018.28 1017.78 1017.06 1016.35 1015.80 1015.34
1018.93 1019.08 1018.79 1018.87 1018.95 1019.22 1019.42 1019.78 1019.54 1019.11 1019.03 1019.27 1019.61 1019.98 1020.17 1020.45 1020.95 1021.63 1022.12 1022.50 1022.57 1022.59 1022.73 1022.78 1022.51 1021.95 1021.30 1020.52 1019.86 1020.59 1020.88 1020.92 1020.55 1019.96 1019.44 1019.08 1018.72 1018.53 1018.47 1018.13 1017.59 1016.96 1016.53 1015.94
1018.82 1019.58 1019.27 1019.19 1019.43 1019.47 1019.39 1019.65 1019.17 1019.42 1019.71 1019.88 1020.09 1020.50 1021.10 1021.77 1022.54 1023.13 1023.76 1024.00 1024.06 1023.98 1024.02 1023.95 1023.69 1023.34 1022.89 1021.80 1020.90 1020.23 1020.98 1021.31 1021.05 1020.46 1019.86 1019.28 1019.13 1018.77 1018.70 1018.49 1018.06 1017.60 1017.12 1016.66
1018.59 1019.29 1019.55 1019.66 1019.57 1019.59 1019.41 1019.39 1019.55 1020.02 1020.41 1020.79 1021.07 1021.74 1022.30 1023.11 1023.72 1024.38 1024.77 1024.91 1024.97 1025.07 1025.11 1024.96 1024.61 1024.10 1023.55 1022.63 1021.53 1020.47 1020.75 1021.35 1021.36 1020.89 1020.31 1019.68 1019.23 1019.14 1018.99 1018.79 1018.63 1018.17 1017.69 1017.20
1018.00 1018.85 1019.24 1019.58 1019.87 1019.87 1020.09 1020.36 1020.70 1020.88 1021.29 1021.88 1022.28 1022.81 1023.36 1024.24 1024.72 1024.93 1025.07 1025.23 1025.52 1025.50 1025.53 1025.38 1025.01 1024.62 1024.06 1023.35 1022.14 1020.94 1020.97 1021.41 1021.67 1021.29 1020.87 1020.42 1019.86 1019.26 1018.98 1018.83 1018.56 1018.33 1018.00 1017.62
1018.44 1019.04 1019.59 1019.82 1020.01 1020.38 1020.79 1021.20 1021.58 1021.98 1022.36 1022.71 1023.36 1023.91 1024.28 1024.59 1024.84 1024.96 1025.04 1025.36 1025.74 1025.86 1025.99 1025.89 1025.60 1025.09 1024.62 1024.03 1023.18 1022.36 1021.75 1021.81 1021.98 1021.81 1021.53 1021.11 1020.58 1019.98 1019.36 1018.85 1018.66 1018.40 1018.09 1017.74
1019.03 1019.39 1019.83 1020.09 1020.74 1021.18 1021.65 1022.00 1022.45 1022.93 1023.42 1023.73 1024.10 1024.40 1024.74 1025.03 1025.30 1025.41 1025.60 1025.85 1026.12 1026.40 1026.46 1026.39 1026.09 1025.73 1025.26 1024.63 1024.15 1023.66 1023.13 1022.62 1022.33 1022.28 1022.20 1021.83 1021.30 1020.77 1020.32 1019.80 1019.26 1018.88 1018.41 1018.13
1019.28 1019.63 1020.47 1020.99 1021.27 1021.73 1022.15 1022.61 1023.25 1023.73 1024.20 1024.60 1024.94 1025.24 1025.54 1025.79 1025.99 1026.08 1026.12 1026.24 1026.34 1026.54 1026.78 1026.83 1026.62 1026.26 1025.82 1025.24 1024.63 1024.31 1024.16 1023.70 1023.09 1022.58 1022.37 1022.21 1021.90 1021.49 1021.01 1020.48 1020.02 1019.59 1018.99 1018.48
1019.86 1020.36 1020.74 1021.34 1021.94 1022.43 1022.94 1023.55 1023.98 1024.54 1025.05 1025.48 1025.75 1026.00 1026.23 1026.38 1026.42 1026.42 1026.49 1026.35 1026.56 1026.80 1026.95 1027.02 1026.91 1026.73 1026.44 1025.93 1025.41 1024.90 1024.57 1024.38 1024.10 1023.59 1023.21 1022.74 1022.33 1021.92 1021.50 1021.12 1020.73 1020.31 1019.92 1019.52
1020.17 1020.76 1021.39 1021.90 1022.62 1023.19 1023.75 1024.35 1024.93 1025.48 1025.92 1026.29 1026.62 1026.81 1026.79 1026.76 1026.77 1026.91 1026.99 1027.02 1026.95 1027.38 1027.40 1027.38 1027.22 1026.97 1026.98 1026.68 1026.19 1025.68 1025.26 1024.91 1024.57 1024.18 1023.92 1023.60 1023.23 1022.76 1022.35 1021.88 1021.40 1020.95 1020.60 1020.16
1020.37 1021.22 1022.08 1022.75 1023.53 1024.16 1024.86 1025.42 1025.90 1026.26 1026.67 1027.16 1027.42 1027.61 1027.65 1027.51 1027.23 1027.13 1027.47 1027.62 1027.70 1027.88 1027.85 1027.93 1027.67 1027.38 1027.57 1027.40 1026.89 1026.45 1026.01 1025.57 1025.27 1025.03 1024.69 1024.26 1023.91 1023.48 1023.06 1022.62 1022.17 1021.67 1021.19 1020.70
1021.23 1021.89 1022.75 1023.49 1024.19 1024.92 1025.57 1026.08 1026.46 1026.81 1027.21 1027.49 1027.67 1028.16 1028.54 1028.37 1027.88 1027.52 1027.85 1028.27 1028.47 1028.46 1028.31 1028.48 1028.20 1027.85 1028.05 1028.13 1027.70 1027.07 1026.65 1026.38 1026.04 1025.78 1025.51 1025.20 1024.71 1024.27 1023.82 1023.36 1022.92 1022.48 1021.95 1021.39
1021.95 1022.68 1023.46 1024.13 1024.84 1025.50 1026.10 1026.60 1027.04 1027.44 1027.78 1028.00 1028.17 1028.13 1028.25 1028.60 1028.60 1028.24 1028.17 1028.87 1029.36 1029.44 1029.09 1029.11 1028.92 1028.64 1028.52 1028.19 1028.10 1027.63 1027.27 1027.08 1026.80 1026.53 1026.31 1025.95 1025.60 1025.14 1024.69 1024.24 1023.81 1023.31 1022.78 1022.25
1022.55 1023.33 1023.99 1024.71 1025.43 1026.05 1026.58 1027.11 1027.66 1028.28 1028.76 1028.80 1028.87 1029.01 1028.70 1028.50 1028.90 1029.07 1029.01 1029.09 1029.75 1029.89 1029.58 1029.71 1029.76 1029.72 1028.91 1028.99 1028.47 1028.23 1027.96 1027.75 1027.48 1027.17 1026.94 1026.67 1026.29 1025.84 1025.39 1024.90 1024.46 1024.01 1023.54 1023.03
1022.91 1023.62 1024.35 1025.13 1025.73 1026.32 1026.94 1027.52 1028.03 1028.47 1028.91 1029.21 1029.25 1029.36 1029.19 1028.99 1028.93 1029.27 1029.90 1030.30 1030.24 1030.35 1030.27 1030.67 1030.74 1030.61 1029.92 1029.45 1029.06 1028.74 1028.47 1028.31 1028.13 1027.89 1027.65 1027.36 1027.07 1026.64 1026.18 1025.70 1025.18 1024.71 1024.26 1023.73
1023.02 1023.76 1024.49 1025.16 1025.81 1026.47 1027.16 1027.67 1028.09 1028.41 1028.76 1029.02 1029.17 1029.14 1029.37 1029.59 1029.54 1029.68 1030.04 1030.70 1030.81 1030.97 1031.15 1031.61 1031.62 1031.05 1030.55 1030.02 1029.72 1029.39 1029.07 1028.91 1028.69 1028.54 1028.30 1028.05 1027.78 1027.37 1026.90 1026.48 1026.00 1025.46 1024.94 1024.39
1023.04 1023.78 1024.50 1025.22 1025.96 1026.57 1027.14 1027.78 1028.22 1028.64 1028.92 1029.33 1029.70 1029.72 1029.61 1029.49 1029.92 1030.17 1030.44 1031.00 1031.27 1031.53 1031.72 1031.84 1031.45 1031.07 1030.58 1030.14 1029.78 1029.45 1029.29 1029.15 1028.96 1028.77 1028.49 1028.28 1028.05 1027.72 1027.31 1026.88 1026.41 1025.95 1025.48 1024.93
1022.98 1023.71 1024.48 1025.20 1025.77 1026.37 1027.06 1027.61 1028.08 1028.51 1028.88 1029.30 1029.67 1029.91 1030.07 1030.26 1030.37 1030.57 1030.83 1031.14 1031.77 1031.61 1031.41 1031.58 1031.38 1030.98 1030.08 1029.80 1029.59 1029.36 1029.05 1028.94 1029.01 1028.95 1028.72 1028.40 1028.11 1027.81 1027.45 1027.02 1026.59 1026.11 1025.62 1025.13
1022.86 1023.62 1024.40 1025.01 1025.41 1026.23 1026.80 1027.30 1027.65 1028.11 1028.60 1029.14 1029.61 1030.03 1030.40 1030.64 1030.72 1030.94 1031.19 1031.54 1031.74 1031.80 1031.75 1031.36 1031.02 1030.71 1030.32 1030.01 1029.87 1029.59 1029.24 1029.06 1029.07 1029.04 1028.85 1028.65 1028.41 1028.18 1027.73 1027.23 1026.71 1026.22 1025.73 1025.25
1023.05 1023.70 1024.31 1024.76 1025.48 1026.07 1026.60 1026.76 1027.28 1027.93 1028.44 1029.00 1029.61 1030.13 1030.54 1030.74 1031.02 1031.20 1031.60 1031.79 1031.89 1031.99 1032.13 1031.76 1031.12 1030.91 1030.74 1030.47 1030.24 1029.96 1029.78 1029.57 1029.45 1029.28 1028.95 1028.79 1028.63 1028.40 1027.86 1027.38 1026.85 1026.34 1025.71 1025.20
Thickness
5561 5560 5559 5550 5552 5559 5553 5556 5546 5545 5544 5547 5552 5552 5554 5552 5547 5541 5536 5530 5525 5519 5514 5510 5506 5499 5484 5473 5464 5455 5448 5443 5436 5426 5414 5401 5389 5376 5362 5346 5331 5320 5312 5305
5540 5544 5540 5530 5541 5551 5554 5560 5542 5542 5541 5552 5558 5560 5551 5544 5539 5533 5528 5523 5519 5515 5512 5507 5502 5493 5480 5467 5457 5451 5445 5439 5434 5422 5410 5397 5386 5373 5358 5342 5326 5316 5308 5301
5532 5535 5517 5519 5517 5529 5527 5542 5541 5534 5538 5541 5541 5544 5542 5534 5529 5524 5521 5517 5513 5510 5507 5503 5497 5489 5478 5465 5454 5445 5439 5436 5428 5417 5405 5392 5381 5370 5354 5338 5324 5314 5307 5297
5530 5528 5515 5516 5532 5538 5538 5541 5541 5540 5538 5539 5540 5539 5534 5529 5522 5518 5515 5511 5509 5507 5503 5499 5492 5486 5479 5470 5452 5441 5434 5429 5422 5412 5401 5389 5378 5366 5352 5338 5323 5314 5307 5295
5538 5525 5519 5525 5536 5529 5533 5530 5539 5532 5537 5538 5542 5532 5522 5524 5519 5514 5513 5511 5505 5504 5500 5493 5486 5480 5475 5469 5450 5440 5432 5424 5418 5408 5397 5387 5376 5365 5353 5339 5326 5316 5309 5299
5549 5541 5522 5533 5543 5545 5546 5526 5538 5538 5533 5533 5533 5515 5517 5519 5517 5512 5511 5507 5501 5499 5494 5487 5480 5476 5471 5464 5449 5435 5429 5422 5414 5406 5397 5387 5376 5366 5353 5342 5329 5321 5314 5303
5550 5540 5534 5547 5547 5547 5523 5517 5539 5532 5529 5525 5523 5521 5518 5517 5512 5509 5507 5502 5496 5493 5486 5479 5473 5469 5465 5459 5443 5432 5427 5420 5412 5405 5396 5388 5377 5367 5354 5343 5332 5325 5319 5310
5551 5540 5529 5552 5548 5531 5535 5537 5532 5529 5531 5527 5525 5520 5514 5510 5506 5503 5495 5487 5480 5477 5473 5466 5461 5459 5456 5452 5443 5429 5422 5416 5410 5404 5397 5388 5378 5368 5357 5346 5335 5327 5322 5316
5549 5543 5554 5552 5547 5543 5539 5530 5530 5533 5531 5525 5518 5511 5508 5502 5494 5484 5476 5468 5463 5458 5451 5446 5443 5443 5443 5444 5443 5429 5419 5410 5405 5401 5396 5388 5381 5371 5360 5349 5338 5329 5323 5319
5555 5546 5548 5549 5544 5541 5539 5531 5535 5529 5522 5517 5511 5506 5496 5486 5475 5465 5455 5449 5445 5441 5435 5430 5428 5426 5424 5429 5431 5430 5417 5407 5401 5397 5393 5389 5381 5373 5363 5353 5344 5334 5325 5321
5556 5550 5546 5543 5541 5539 5537 5535 5528 5521 5514 5506 5501 5490 5482 5470 5460 5449 5442 5437 5432 5426 5421 5417 5416 5416 5416 5419 5423 5429 5420 5407 5399 5395 5392 5390 5384 5374 5366 5358 5348 5339 5332 5327
5558 5554 5546 5540 5536 5535 5528 5521 5515 5510 5502 5494 5486 5477 5469 5455 5446 5441 5436 5431 5423 5418 5413 5410 5410 5409 5409 5410 5416 5422 5418 5408 5398 5394 5390 5386 5383 5379 5373 5364 5357 5349 5342 5336
5556 5551 5544 5540 5535 5528 5520 5513 5506 5498 5491 5483 5474 5464 5457 5450 5445 5437 5435 5427 5419 5414 5408 5405 5403 5403 5402 5403 5406 5408 5410 5406 5398 5393 5389 5385 5382 5380 5378 5374 5367 5360 5354 5350
5554 5549 5540 5535 5523 5519 5512 5505 5497 5489 5479 5472 5465 5459 5453 5446 5439 5434 5428 5422 5414 5406 5401 5397 5395 5394 5395 5396 5396 5396 5397 5397 5396 5392 5387 5383 5382 5380 5377 5375 5372 5367 5364 5359
5551 5546 5534 5527 5521 5513 5506 5497 5486 5478 5470 5464 5458 5452 5446 5438 5431 5426 5421 5414 5409 5401 5394 5389 5387 5387 5387 5388 5391 5390 5388 5389 5391 5392 5389 5384 5381 5378 5378 5377 5374 5371 5370 5368
5544 5538 5532 5522 5513 5505 5496 5486 5479 5471 5464 5458 5453 5447 5440 5434 5428 5424 5418 5415 5407 5399 5393 5387 5383 5382 5381 5381 5383 5384 5385 5383 5384 5384 5384 5384 5383 5383 5381 5379 5377 5375 5372 5371
5539 5530 5523 5516 5506 5497 5488 5480 5472 5465 5460 5453 5446 5440 5437 5433 5429 5422 5416 5410 5406 5395 5390 5385 5382 5380 5377 5377 5378 5379 5380 5381 5382 5383 5382 5380 5380 5380 5380 5379 5379 5378 5376 5374
5541 5529 5519 5508 5497 5487 5478 5471 5466 5462 5454 5447 5442 5437 5433 5430 5428 5424 5415 5408 5401 5394 5389 5383 5381 5379 5374 5373 5376 5376 5377 5378 5378 5379 5379 5379 5378 5378 5377 5378 5378 5377 5377 5378
5533 5524 5512 5501 5491 5481 5474 5469 5465 5460 5455 5451 5446 5437 5429 5426 5428 5427 5417 5407 5399 5394 5391 5383 5379 5380 5374 5372 5374 5376 5376 5375 5375 5375 5375 5375 5375 5376 5376 5376 5376 5375 5377 5378
5526 5516 5505 5495 5486 5478 5473 5469 5464 5460 5456 5453 5449 5446 5441 5431 5426 5427 5423 5410 5401 5393 5391 5385 5382 5379 5377 5375 5375 5376 5376 5375 5374 5374 5373 5373 5373 5373 5373 5373 5373 5374 5375 5376
5520 5509 5499 5489 5481 5477 5472 5468 5463 5456 5451 5450 5448 5443 5444 5443 5432 5426 5422 5418 5406 5399 5398 5391 5385 5380 5381 5379 5379 5378 5377 5376 5375 5374 5373 5372 5371 5371 5371 5372 5372 5372 5373 5373
5516 5506 5495 5486 5481 5477 5473 5469 5465 5461 5456 5451 5440 5434 5440 5444 5441 5433 5423 5415 5412 5406 5404 5395 5389 5386 5386 5386 5384 5383 5382 5380 5377 5376 5374 5372 5371 5370 5369 5369 5370 5370 5370 5370
5516 5505 5495 5488 5484 5480 5476 5473 5469 5466 5463 5459 5456 5454 5448 5443 5440 5435 5429 5420 5416 5411 5406 5398 5394 5394 5394 5393 5391 5389 5387 5385 5382 5379 5377 5375 5373 5372 5370 5369 5369 5368 5368 5369
5516 5506 5496 5491 5486 5483 5480 5475 5471 5467 5464 5459 5454 5452 5451 5450 5442 5438 5433 5424 5420 5415 5409 5404 5401 5400 5400 5399 5398 5396 5394 5391 5388 5385 5383 5380 5377 5375 5374 5373 5372 5371 5369 5369
5518 5508 5498 5493 5491 5488 5483 5480 5476 5473 5468 5464 5460 5456 5452 5448 5444 5441 5435 5431 5424 5422 5418 5413 5410 5409 5410 5408 5406 5404 5402 5399 5394 5390 5387 5385 5383 5381 5378 5377 5375 5374 5373 5372
5520 5510 5501 5498 5497 5492 5489 5486 5483 5480 5475 5470 5464 5459 5454 5450 5447 5443 5439 5434 5431 5426 5422 5419 5419 5418 5416 5413 5411 5408 5406 5403 5399 5394 5390 5387 5385 5382 5380 5379 5378 5376 5374 5373
5519 5508 5504 5502 5498 5496 5493 5493 5490 5484 5480 5475 5468 5463 5458 5455 5450 5447 5441 5438 5435 5431 5426 5425 5424 5422 5419 5417 5413 5411 5407 5404 5401 5396 5394 5391 5387 5384 5382 5379 5377 5376 5374 5373